Date,TemperatureHighF,TemperatureAvgF,TemperatureLowF,DewpointHighF,DewpointAvgF,DewpointLowF,HumidityHigh,HumidityAvg,HumidityLow,PressureMaxIn,PressureMinIn,WindSpeedMaxMPH,WindSpeedAvgMPH,GustSpeedMaxMPH,PrecipitationSumIn
2013-1-1,69.3,57.4,47.7,69.0,55.1,43.8,99,92,85,30.18,29.89,18,7,21,1.31
2013-1-2,47.7,44.1,42.2,44.0,40.8,37.2,93,88,82,30.30,30.15,18,6,18,0.10
2013-1-3,55.1,47.0,40.5,39.8,37.1,34.4,85,70,49,30.40,30.26,21,7,23,0.00
2013-1-4,49.9,47.8,45.0,40.5,38.5,36.3,79,70,60,30.48,30.33,20,7,21,0.01
2013-1-5,47.1,45.7,44.0,46.2,43.8,40.1,97,93,78,30.37,30.23,17,5,17,0.50
2013-1-6,59.1,48.6,38.9,47.3,44.0,37.3,97,85,62,30.35,30.23,25,7,25,0.00
2013-1-7,55.2,46.7,33.8,48.9,43.1,32.5,98,88,76,30.30,30.06,18,6,18,0.00
2013-1-8,65.8,59.0,51.3,64.5,57.5,48.5,98,95,87,30.08,29.86,36,8,36,0.64
2013-1-9,67.3,64.4,61.7,65.9,63.3,61.1,98,96,91,30.09,29.77,43,10,43,1.47
2013-1-10,73.8,60.7,49.9,61.4,56.9,48.8,99,89,49,30.10,29.96,15,3,16,0.04
2013-1-11,72.5,59.5,45.3,70.4,56.3,44.0,99,90,61,30.06,29.88,16,4,16,0.01
2013-1-12,74.3,71.7,69.9,71.7,70.5,69.5,99,96,90,29.90,29.69,28,10,28,0.00
2013-1-13,71.3,52.0,44.1,70.1,48.4,41.3,97,88,78,30.10,29.77,28,9,28,0.62
2013-1-14,47.9,45.0,42.8,43.4,41.6,39.8,95,88,80,30.20,30.05,22,9,25,0.01
2013-1-15,44.5,40.8,37.9,41.2,38.5,35.0,95,91,87,30.14,30.01,21,8,21,0.02
2013-1-16,55.9,42.6,30.5,37.0,31.6,24.5,90,68,33,30.28,30.12,23,8,23,0.00
2013-1-17,63.8,44.1,27.5,38.8,32.7,25.8,95,69,32,30.46,30.27,19,4,19,0.00
2013-1-18,60.2,44.6,32.5,49.3,38.3,31.2,97,80,49,30.53,30.36,18,4,18,0.00
2013-1-19,70.1,52.3,34.3,55.2,47.0,32.8,98,84,56,30.36,30.19,15,4,17,0.00
2013-1-20,71.0,53.1,41.7,60.8,48.7,40.8,99,86,55,30.27,30.13,12,3,12,0.00
2013-1-21,72.0,54.1,41.5,58.8,48.3,40.5,98,83,55,30.24,30.13,7,3,11,0.00
2013-1-22,73.5,54.5,42.5,57.5,48.5,41.2,98,83,47,30.33,30.19,16,4,16,0.00
2013-1-23,77.8,58.9,42.5,63.7,54.4,41.4,99,87,58,30.35,30.24,20,5,20,0.00
2013-1-24,82.5,65.3,55.9,70.4,61.5,55.3,99,89,59,30.30,30.16,16,5,22,0.00
2013-1-25,81.6,66.8,57.4,69.8,62.0,56.8,99,86,56,30.19,30.08,21,5,21,0.00
2013-1-26,81.0,65.3,55.3,70.6,60.9,54.5,99,87,59,30.19,30.10,20,4,21,0.00
2013-1-27,77.0,67.2,58.3,69.5,64.7,57.2,99,92,77,30.15,30.05,25,8,25,0.02
2013-1-28,77.5,71.3,68.4,70.0,67.8,65.6,96,89,75,30.12,29.96,26,10,26,0.00
2013-1-29,74.4,71.5,60.1,71.1,69.3,56.4,97,93,80,29.97,29.63,33,12,33,0.06
2013-1-30,62.9,56.1,37.0,56.8,36.8,28.9,89,51,30,30.25,29.75,40,10,40,0.00
2013-1-31,71.7,50.3,32.0,45.0,34.8,28.0,96,63,20,30.33,30.21,18,5,21,0.00
2013-2-1,72.5,56.2,44.0,54.1,45.5,39.3,97,71,37,30.36,30.24,15,4,19,0.00
2013-2-2,77.4,58.6,44.2,60.2,51.8,42.8,98,81,46,30.26,30.17,11,3,15,0.00
2013-2-3,71.1,56.8,46.5,52.6,46.7,39.4,98,73,34,30.32,30.06,14,4,20,0.00
2013-2-4,75.0,64.3,51.9,66.1,60.2,49.4,97,87,71,30.06,29.83,19,5,19,0.00
2013-2-5,84.2,68.0,60.4,69.8,64.6,59.3,99,90,59,29.99,29.87,16,3,16,0.00
2013-2-6,66.3,63.4,59.8,65.4,62.1,58.1,99,96,92,30.03,29.83,32,8,34,0.81
2013-2-7,73.0,62.7,52.0,65.3,59.9,51.2,99,91,76,29.99,29.89,13,2,13,0.00
2013-2-8,70.0,61.6,53.4,61.6,55.2,50.3,98,81,60,30.16,29.99,18,6,20,0.00
2013-2-9,71.0,63.7,55.1,66.8,60.2,53.1,94,88,78,30.12,29.86,27,9,27,0.00
2013-2-10,76.0,66.9,60.9,73.2,64.1,56.8,96,91,76,29.95,29.73,29,8,31,0.06
2013-2-11,63.9,58.1,55.3,59.0,54.5,48.7,96,88,65,30.04,29.94,33,10,33,0.08
2013-2-12,71.0,60.9,56.3,68.9,58.7,53.0,99,93,84,29.99,29.78,23,6,23,0.01
2013-2-13,63.5,52.7,41.9,53.1,44.5,39.5,92,75,50,30.11,29.98,16,6,22,0.05
2013-2-14,69.0,50.6,35.9,49.6,41.5,34.6,98,75,34,30.17,30.05,12,3,12,0.00
2013-2-15,70.2,54.2,38.3,54.6,43.7,37.0,98,71,42,30.31,30.09,26,5,26,0.00
2013-2-16,65.0,50.8,37.4,40.7,33.2,26.9,89,54,27,30.44,30.26,20,5,20,0.00
2013-2-17,73.7,56.7,37.4,55.2,45.8,35.8,97,71,38,30.27,30.06,19,7,25,0.00
2013-2-18,74.7,67.6,56.0,65.9,61.7,53.9,94,82,69,30.08,29.85,27,12,36,0.24
2013-2-19,65.1,57.1,50.7,54.5,46.3,41.4,96,69,44,30.24,30.07,20,7,23,0.05
2013-2-20,64.8,59.3,52.4,63.2,54.0,42.8,95,83,57,30.13,29.79,34,12,34,0.08
2013-2-21,76.5,68.7,60.2,72.4,65.1,53.8,97,89,66,29.84,29.67,30,9,30,0.10
2013-2-22,69.1,62.4,56.9,56.9,52.2,46.0,88,70,50,29.97,29.82,18,8,27,0.00
2013-2-23,70.9,58.4,48.7,56.3,51.0,46.2,94,77,59,30.00,29.88,20,4,20,0.00
2013-2-24,66.6,57.7,44.8,60.6,54.4,43.5,98,89,77,29.94,29.66,19,8,22,0.00
2013-2-25,79.2,64.6,49.1,69.6,48.8,26.5,99,65,17,29.78,29.52,28,9,37,0.00
2013-2-26,67.4,54.4,44.3,42.9,38.0,34.3,77,56,34,29.93,29.78,22,8,30,0.00
2013-2-27,77.2,56.8,40.0,57.3,42.1,32.2,97,62,30,30.16,29.90,21,6,29,0.00
2013-2-28,58.7,48.5,39.6,38.3,32.4,28.8,80,55,33,30.27,30.15,17,6,23,0.00
2013-3-1,68.8,52.8,37.2,38.9,33.4,27.7,87,53,23,30.29,30.13,24,5,24,0.00
2013-3-2,59.4,48.5,34.1,39.7,31.0,23.4,79,54,29,30.35,30.23,31,8,31,0.00
2013-3-3,69.3,50.9,31.0,52.8,38.7,27.5,90,67,36,30.29,30.02,22,5,22,0.00
2013-3-4,79.4,67.1,55.1,63.1,59.3,52.5,92,78,55,30.02,29.80,28,11,37,0.00
2013-3-5,72.2,64.4,49.9,63.4,46.7,29.0,88,56,28,30.29,29.81,23,9,29,0.00
2013-3-6,69.0,53.6,43.2,42.7,32.1,22.9,80,47,20,30.41,30.23,22,5,25,0.00
2013-3-7,68.7,54.2,38.8,52.9,46.1,36.5,96,76,48,30.28,30.18,22,6,22,0.00
2013-3-8,71.1,61.3,48.6,62.1,57.4,46.7,98,88,70,30.21,30.07,22,9,25,0.00
2013-3-9,77.3,68.1,62.4,67.8,63.6,60.0,94,86,67,30.07,29.77,32,11,32,0.00
2013-3-10,69.2,64.4,55.2,66.5,57.4,41.2,94,80,54,30.04,29.72,29,8,29,0.18
2013-3-11,66.5,54.9,39.8,41.2,34.2,26.1,78,49,24,30.13,29.98,28,7,28,0.00
2013-3-12,71.2,51.9,34.0,48.1,39.2,31.3,94,66,33,30.24,30.08,16,3,16,0.00
2013-3-13,70.3,55.2,41.8,51.2,44.0,39.0,97,71,32,30.44,30.24,15,5,20,0.00
2013-3-14,73.8,56.8,41.0,58.4,46.7,39.6,98,73,36,30.42,30.28,19,5,19,0.00
2013-3-15,79.7,62.4,44.9,63.3,54.7,43.6,98,78,49,30.28,30.08,19,6,24,0.00
2013-3-16,80.8,67.4,56.3,66.2,61.1,54.9,98,81,59,30.08,29.87,29,9,29,0.00
2013-3-17,79.4,70.0,61.6,70.5,65.9,60.0,99,87,73,29.88,29.72,27,8,27,0.00
2013-3-18,87.5,74.1,66.6,73.0,68.7,64.7,98,85,59,29.88,29.72,19,5,19,0.00
2013-3-19,75.5,68.1,63.5,66.1,62.2,49.7,97,82,59,29.99,29.87,25,8,26,0.00
2013-3-20,73.7,64.8,52.6,64.3,53.8,41.4,93,70,32,30.16,29.93,21,9,33,0.06
2013-3-21,74.5,62.4,49.3,63.3,55.7,48.0,98,80,56,30.04,29.72,21,7,27,0.00
2013-3-22,82.8,73.2,66.2,73.0,68.9,63.0,96,87,69,29.74,29.67,20,6,21,0.00
2013-3-23,76.2,70.5,62.4,71.6,68.6,61.2,98,94,84,29.74,29.57,12,3,12,0.00
2013-3-24,66.3,60.2,50.2,66.0,44.6,31.3,99,61,32,30.12,29.63,34,10,34,0.00
2013-3-25,64.1,51.6,42.3,34.0,29.5,22.8,66,45,23,30.36,30.13,25,6,25,0.00
2013-3-26,65.7,51.7,37.8,33.6,28.5,22.2,74,44,20,30.48,30.31,17,5,22,0.00
2013-3-27,68.1,53.6,35.0,52.5,42.2,31.6,95,68,40,30.37,30.23,23,5,23,0.00
2013-3-28,74.5,64.9,59.1,61.7,57.6,52.2,91,78,62,30.26,30.19,21,6,22,0.00
2013-3-29,77.4,66.1,56.2,65.8,61.4,54.5,98,86,64,30.22,30.13,24,6,25,0.04
2013-3-30,81.3,69.4,62.0,68.7,64.8,60.6,97,86,62,30.15,29.97,16,6,21,0.00
2013-3-31,87.0,69.9,61.6,71.9,65.4,60.3,99,87,55,29.98,29.85,31,6,32,0.46
2013-4-1,77.8,67.1,59.5,69.1,64.0,58.4,98,90,71,30.07,29.93,11,4,16,0.00
2013-4-2,73.0,66.2,59.9,68.6,64.6,58.9,98,94,85,30.01,29.80,15,7,27,1.88
2013-4-3,70.0,62.6,54.4,63.1,59.8,52.1,97,91,78,30.07,29.76,22,7,23,0.33
2013-4-4,60.8,54.5,51.8,52.3,49.4,44.4,96,83,68,30.18,30.01,21,6,21,0.01
2013-4-5,73.7,57.7,43.5,53.2,47.8,41.4,94,72,44,30.25,30.09,14,4,19,0.00
2013-4-6,75.7,62.9,49.0,63.0,57.3,47.5,98,83,63,30.12,29.96,24,6,25,0.00
2013-4-7,80.3,69.5,61.1,66.5,63.3,59.3,97,82,59,29.99,29.86,23,6,24,0.00
2013-4-8,80.2,71.2,65.2,70.8,67.6,64.3,98,89,72,29.88,29.78,25,9,29,0.00
2013-4-9,79.2,73.4,68.4,73.8,70.3,66.7,95,90,80,29.81,29.71,32,12,35,0.00
2013-4-10,80.2,68.4,51.3,74.8,65.8,50.1,96,92,70,29.82,29.71,29,10,31,0.18
2013-4-11,71.4,55.5,44.6,54.3,49.0,43.0,97,81,47,29.93,29.77,16,6,27,1.63
2013-4-12,76.9,60.9,46.2,58.8,51.7,45.1,98,76,37,30.01,29.86,15,3,15,0.00
2013-4-13,75.4,63.5,49.6,63.7,56.6,48.6,98,80,51,29.97,29.80,27,6,27,0.00
2013-4-14,83.3,70.1,57.8,72.0,65.5,56.6,99,86,65,29.80,29.69,21,4,21,0.00
2013-4-15,79.9,73.7,67.0,73.7,70.4,66.0,98,90,79,29.86,29.74,17,6,17,0.00
2013-4-16,80.5,74.5,71.5,75.1,72.3,70.3,98,93,82,29.95,29.83,15,7,34,0.00
2013-4-17,76.8,74.5,72.9,74.0,72.5,71.4,96,93,90,29.93,29.76,28,10,34,0.00
2013-4-18,77.4,67.2,54.2,74.5,64.4,47.0,95,91,76,30.03,29.71,31,9,31,0.11
2013-4-19,68.3,55.9,44.6,47.3,39.5,32.8,83,56,30,30.24,30.02,32,9,32,0.00
2013-4-20,68.0,54.4,38.6,52.2,45.1,37.0,97,73,47,30.25,30.09,22,5,22,0.00
2013-4-21,71.8,61.7,51.3,61.1,55.3,49.1,97,81,63,30.16,30.05,23,5,23,0.00
2013-4-22,78.4,65.0,52.3,66.5,59.4,51.2,98,83,62,30.11,29.96,16,4,17,0.00
2013-4-23,83.8,71.6,60.2,70.8,66.7,59.1,99,85,62,29.98,29.88,23,5,23,0.00
2013-4-24,72.2,61.7,51.2,70.9,54.4,47.4,96,78,59,30.20,29.96,25,7,26,0.11
2013-4-25,68.1,63.0,57.8,62.8,54.8,48.8,88,75,64,30.30,30.17,25,8,25,0.00
2013-4-26,80.5,72.4,66.3,72.8,68.6,62.9,96,88,74,30.21,30.09,24,7,24,0.00
2013-4-27,80.3,72.0,65.5,73.8,69.6,63.9,98,93,76,30.11,29.97,19,5,19,0.83
2013-4-28,82.5,71.3,64.2,69.8,65.8,60.8,98,84,56,30.06,29.87,12,5,16,0.37
2013-4-29,81.8,71.9,64.1,72.3,68.1,62.9,99,89,66,29.93,29.83,12,4,19,0.03
2013-4-30,82.2,72.2,64.1,71.4,67.8,63.2,99,87,66,29.85,29.75,12,4,17,0.00
2013-5-1,83.4,74.2,65.2,73.3,69.0,64.3,99,85,67,29.88,29.79,12,3,15,0.00
2013-5-2,78.2,68.4,53.0,70.9,62.7,45.8,98,83,66,30.16,29.87,25,8,32,0.00
2013-5-3,68.6,57.1,46.4,45.7,40.8,33.5,82,58,29,30.17,30.04,28,10,32,0.00
2013-5-4,82.9,63.6,40.4,54.8,47.3,38.5,97,61,28,30.09,29.86,16,5,22,0.00
2013-5-5,75.5,63.5,52.7,55.0,50.6,46.8,91,66,41,30.08,29.95,23,5,23,0.00
2013-5-6,80.1,65.1,46.5,60.2,53.8,45.1,97,70,42,30.11,29.98,10,2,14,0.00
2013-5-7,87.3,70.8,55.1,64.4,59.6,53.7,97,71,42,30.07,29.97,12,3,16,0.00
2013-5-8,82.8,70.5,57.6,70.2,64.2,56.2,98,82,58,30.07,29.97,17,5,20,0.00
2013-5-9,78.7,74.2,69.1,73.8,71.2,66.7,95,90,82,30.00,29.86,16,7,29,0.00
2013-5-10,80.6,72.6,65.5,73.3,69.8,64.0,98,91,75,30.05,29.85,36,5,39,1.96
2013-5-11,82.8,72.8,63.1,73.4,67.5,60.5,99,85,64,30.07,29.91,14,3,16,0.12
2013-5-12,79.8,72.9,65.9,68.3,62.4,55.6,90,71,47,30.17,30.05,24,5,24,0.00
2013-5-13,78.7,68.6,57.0,66.1,60.4,55.6,97,77,52,30.28,30.16,12,5,16,0.00
2013-5-14,82.1,70.5,58.3,71.6,65.2,56.9,99,85,65,30.22,30.11,17,5,18,0.00
2013-5-15,79.7,72.4,67.6,74.5,69.1,66.1,97,90,75,30.14,29.93,20,6,21,0.16
2013-5-16,82.5,75.7,71.0,74.6,72.0,69.5,96,89,75,29.96,29.82,17,7,24,0.00
2013-5-17,86.2,78.2,72.8,78.0,74.0,71.2,96,87,74,29.95,29.84,20,6,20,0.00
2013-5-18,89.8,79.7,74.6,78.3,74.3,72.5,95,84,63,29.97,29.89,23,7,23,0.00
2013-5-19,86.8,79.4,74.6,77.9,74.6,72.4,94,86,70,29.92,29.83,18,8,23,0.00
2013-5-20,86.3,79.7,76.2,79.1,75.7,73.1,96,88,74,29.90,29.78,17,8,22,0.00
2013-5-21,86.7,80.0,75.7,78.1,75.9,74.1,97,88,74,29.86,29.73,26,7,26,0.00
2013-5-22,90.2,80.6,73.2,80.9,76.4,70.2,97,88,71,29.92,29.79,9,4,18,0.00
2013-5-23,88.5,79.7,71.5,79.4,75.4,70.6,99,87,70,30.05,29.88,13,4,17,0.00
2013-5-24,87.5,79.4,72.5,80.2,75.6,71.1,99,89,73,30.13,30.00,18,5,18,0.00
2013-5-25,84.8,77.7,70.8,77.1,74.2,69.9,100,89,75,30.15,30.05,17,5,17,0.00
2013-5-26,88.1,80.0,74.6,77.6,74.3,71.9,96,84,65,30.10,30.01,15,6,19,0.00
2013-5-27,86.6,79.3,71.9,77.9,73.7,70.4,95,84,72,30.04,29.93,17,7,21,0.00
2013-5-28,86.2,79.2,74.3,77.5,73.9,71.3,92,84,69,29.97,29.87,22,8,24,0.05
2013-5-29,83.5,79.2,75.6,76.8,74.9,72.7,92,87,79,29.89,29.80,19,8,24,0.00
2013-5-30,86.8,80.9,76.4,79.3,76.7,74.2,96,87,76,29.89,29.81,20,8,25,0.01
2013-5-31,90.9,83.1,78.0,81.6,78.2,76.5,96,86,70,29.91,29.84,17,7,22,0.01
2013-6-1,92.3,83.2,77.0,82.4,77.8,75.4,95,84,68,29.90,29.83,15,7,22,0.00
2013-6-2,85.6,77.1,69.4,76.7,73.1,67.4,99,88,65,30.02,29.87,17,3,29,0.11
2013-6-3,90.1,77.6,66.5,75.0,69.8,65.6,99,79,53,29.95,29.82,12,3,17,0.00
2013-6-4,91.5,80.0,67.6,77.9,73.0,66.7,99,81,57,29.91,29.82,12,3,15,0.00
2013-6-5,90.6,80.9,69.4,79.6,74.9,68.5,100,83,64,29.88,29.76,15,3,18,0.00
2013-6-6,94.3,82.0,70.4,81.5,75.6,67.4,100,83,60,29.86,29.72,17,3,28,0.41
2013-6-7,91.6,78.3,68.2,74.7,71.4,67.3,99,81,52,29.93,29.83,10,3,13,0.01
2013-6-8,90.4,78.2,70.8,77.9,72.7,68.7,98,84,60,29.92,29.82,17,2,30,0.31
2013-6-9,90.5,75.5,71.7,81.5,73.4,69.6,100,93,73,29.95,29.84,11,2,24,0.72
2013-6-10,91.9,80.4,69.2,82.4,75.7,68.7,100,87,68,29.98,29.93,15,3,18,0.00
2013-6-11,92.1,83.1,74.3,83.1,78.2,73.1,100,86,69,30.04,29.97,16,4,17,0.00
2013-6-12,92.2,82.8,74.5,83.1,78.1,73.8,99,86,70,30.06,29.97,13,4,19,0.00
2013-6-13,94.7,82.2,74.9,84.8,78.2,73.7,100,89,65,30.05,29.92,11,2,18,1.01
2013-6-14,95.2,83.8,73.1,82.7,77.8,72.8,100,84,60,29.97,29.88,11,2,13,0.00
2013-6-15,93.6,84.1,76.0,82.1,77.4,74.3,99,82,62,29.99,29.89,12,3,15,0.00
2013-6-16,94.3,83.1,72.4,82.1,77.3,71.8,100,84,62,30.01,29.92,15,4,19,0.00
2013-6-17,95.8,84.4,74.5,83.1,77.9,73.3,99,82,59,30.00,29.89,18,4,21,0.00
2013-6-18,95.1,83.5,74.9,82.4,76.5,71.4,99,81,55,29.99,29.86,17,4,21,0.00
2013-6-19,97.6,84.1,74.0,82.4,76.9,71.9,99,81,52,29.99,29.91,16,4,22,0.00
2013-6-20,94.0,84.0,74.4,81.9,77.4,73.2,99,82,61,30.07,29.96,15,4,17,0.00
2013-6-21,93.0,83.6,74.2,82.1,76.6,73.3,99,81,58,30.09,30.01,13,4,17,0.00
2013-6-22,93.5,83.0,72.5,81.4,75.4,71.6,100,80,53,30.06,29.95,13,4,17,0.00
2013-6-23,93.9,83.1,72.8,81.1,75.7,71.6,99,80,56,30.01,29.94,14,4,20,0.00
2013-6-24,93.9,84.1,74.4,81.7,77.3,73.5,99,81,60,30.06,29.97,19,5,20,0.05
2013-6-25,94.2,85.1,78.3,82.9,78.3,75.6,94,81,63,30.03,29.94,14,5,19,0.00
2013-6-26,97.3,85.5,77.5,81.5,77.3,74.5,94,78,52,30.00,29.93,14,5,19,0.00
2013-6-27,97.8,84.6,72.8,81.6,76.4,71.9,99,78,54,30.02,29.92,15,3,17,0.00
2013-6-28,100.8,85.1,71.7,82.1,75.8,70.6,99,77,42,29.98,29.81,12,3,15,0.00
2013-6-29,104.1,88.1,76.8,83.3,77.4,72.6,97,74,39,29.85,29.70,14,4,17,0.00
2013-6-30,101.3,88.3,75.7,77.6,70.5,62.1,95,61,30,29.84,29.75,12,3,18,0.00
2013-7-1,91.9,82.1,69.2,69.6,65.3,61.0,87,59,40,29.94,29.83,14,4,17,0.00
2013-7-2,92.6,79.5,66.3,74.3,67.7,63.4,94,69,42,29.99,29.91,9,2,13,0.00
2013-7-3,93.0,79.7,67.7,73.3,68.8,65.9,96,72,42,30.01,29.90,15,3,18,0.00
2013-7-4,92.8,81.2,68.8,76.1,70.7,66.9,97,73,44,29.97,29.88,15,3,17,0.00
2013-7-5,92.6,82.1,70.2,78.5,73.2,68.8,98,76,52,29.96,29.85,15,4,19,0.00
2013-7-6,91.3,82.1,72.2,78.6,75.0,70.9,99,80,61,29.92,29.85,18,5,23,0.00
2013-7-7,89.2,80.7,73.9,80.1,75.5,72.7,99,85,65,30.00,29.88,17,4,21,0.00
2013-7-8,89.2,82.0,76.7,80.0,76.5,74.1,95,84,67,30.14,30.00,10,4,16,0.00
2013-7-9,94.5,83.5,73.2,81.4,76.6,72.1,99,81,60,30.14,30.04,16,3,18,0.00
2013-7-10,95.3,84.4,73.3,80.9,76.2,72.1,98,78,55,30.09,29.95,13,3,19,0.00
2013-7-11,99.1,84.7,72.1,80.7,75.3,70.8,99,76,43,30.01,29.90,20,3,20,0.00
2013-7-12,95.5,84.7,75.6,80.7,76.2,72.6,97,77,54,29.96,29.87,17,2,17,0.02
2013-7-13,100.3,82.9,70.9,79.7,74.6,69.7,98,79,45,29.97,29.83,16,2,25,0.03
2013-7-14,91.3,82.5,74.8,80.2,76.1,68.2,99,82,54,29.96,29.86,17,3,17,0.00
2013-7-15,90.1,79.7,72.4,82.3,75.6,71.0,97,88,69,30.04,29.89,24,4,25,1.14
2013-7-16,86.0,78.2,72.5,79.9,75.6,71.6,99,92,75,30.08,29.99,33,5,33,1.55
2013-7-17,83.5,77.6,73.9,78.5,75.9,73.0,99,95,83,30.17,30.07,13,4,16,0.18
2013-7-18,90.6,82.0,74.3,80.3,75.4,69.2,100,83,50,30.13,29.98,10,5,19,0.00
2013-7-19,90.4,78.7,73.8,80.6,75.1,72.7,100,89,67,30.05,29.93,9,2,16,0.00
2013-7-20,90.5,80.0,74.2,81.3,76.5,72.5,100,90,68,29.98,29.86,12,3,22,0.11
2013-7-21,87.5,79.0,74.1,80.1,76.3,73.5,100,92,72,30.01,29.91,13,4,24,0.52
2013-7-22,93.7,84.9,77.8,83.1,79.5,76.9,99,85,66,30.02,29.95,11,5,22,0.00
2013-7-23,96.9,85.1,75.5,82.7,78.2,74.9,100,82,58,30.03,29.92,15,4,19,0.00
2013-7-24,96.5,85.0,73.2,82.8,77.7,72.3,99,80,55,30.00,29.87,14,4,16,0.00
2013-7-25,95.4,84.1,74.0,83.3,77.3,72.3,99,82,48,30.03,29.94,15,3,16,0.00
2013-7-26,98.0,84.6,73.8,82.4,77.9,73.0,99,82,52,30.04,29.91,15,4,21,0.00
2013-7-27,99.1,83.0,76.6,83.7,78.4,75.0,99,87,54,29.95,29.84,13,3,24,1.25
2013-7-28,94.9,83.1,75.6,83.6,78.5,75.3,100,87,60,29.97,29.89,11,3,19,0.07
2013-7-29,93.2,84.0,76.1,82.2,78.0,75.2,99,83,64,30.07,29.96,14,5,18,0.00
2013-7-30,94.9,83.3,74.3,83.1,77.6,73.3,99,84,60,30.11,30.03,15,4,20,0.00
2013-7-31,96.0,82.9,71.4,83.7,76.8,70.8,100,83,59,30.09,29.95,12,2,17,0.00
2013-8-1,97.1,83.9,73.0,82.4,77.3,72.4,100,82,55,30.03,29.91,12,2,15,0.00
2013-8-2,95.4,83.9,73.8,82.7,77.6,73.0,99,83,58,29.99,29.91,12,3,17,0.00
2013-8-3,94.8,83.4,73.7,83.8,78.1,72.8,99,85,65,30.03,29.96,13,4,18,0.09
2013-8-4,94.9,84.8,76.3,83.8,78.9,75.7,99,84,64,30.07,29.97,12,3,17,0.00
2013-8-5,98.5,85.7,74.9,84.2,78.7,74.0,100,81,55,30.05,29.94,16,4,22,0.00
2013-8-6,99.9,89.6,75.5,83.4,79.6,74.8,99,74,55,29.98,29.88,16,6,22,0.00
2013-8-7,100.7,86.0,76.8,82.5,78.5,75.8,98,80,46,29.94,29.85,16,5,22,0.00
2013-8-8,95.8,83.8,73.4,82.4,77.3,72.8,100,82,56,29.94,29.84,13,3,19,0.00
2013-8-9,96.2,83.7,72.3,82.1,77.1,71.4,100,82,57,29.96,29.87,12,2,15,0.00
2013-8-10,92.7,82.0,76.7,81.9,78.2,75.6,100,89,66,30.04,29.94,11,2,23,0.49
2013-8-11,89.1,80.2,75.2,81.7,77.4,74.2,100,92,73,30.07,29.98,11,2,14,1.49
2013-8-12,93.1,83.1,73.8,82.5,78.0,73.2,100,86,67,30.07,29.97,9,3,17,0.00
2013-8-13,98.0,85.9,76.4,83.4,79.2,75.8,100,82,56,30.04,29.89,19,4,19,0.00
2013-8-14,98.7,84.3,75.0,82.7,77.6,72.6,100,82,51,29.99,29.86,14,4,27,0.12
2013-8-15,87.5,78.6,74.5,80.9,75.9,72.2,100,92,64,30.01,29.91,10,2,10,0.60
2013-8-16,92.9,81.6,75.2,80.4,76.3,73.8,100,85,59,29.98,29.87,10,2,15,0.02
2013-8-17,91.3,80.2,72.4,75.9,72.7,69.9,99,80,52,30.00,29.89,12,4,16,0.01
2013-8-18,89.1,79.1,69.3,77.8,72.5,67.8,97,82,55,30.01,29.94,11,4,16,0.00
2013-8-19,90.2,79.1,69.8,78.2,72.7,68.9,100,82,56,30.03,29.92,15,3,18,0.00
2013-8-20,87.1,77.7,71.4,79.2,74.5,70.8,100,90,72,30.05,29.94,13,2,16,0.26
2013-8-21,90.6,80.6,72.7,81.5,76.3,72.0,100,87,65,30.06,29.98,18,3,21,0.00
2013-8-22,90.2,81.1,74.5,85.4,77.7,74.1,100,90,68,30.06,29.93,14,3,15,0.07
2013-8-23,92.1,82.3,73.5,80.3,77.0,72.9,100,85,64,30.00,29.88,10,3,14,0.00
2013-8-24,90.5,82.6,75.4,80.8,77.2,74.8,99,85,65,30.01,29.93,16,4,23,0.00
2013-8-25,83.0,79.3,76.0,78.5,77.1,74.9,99,93,84,30.06,29.97,14,6,21,0.60
2013-8-26,81.6,76.2,73.8,77.8,74.8,73.5,100,96,78,30.12,30.02,16,4,19,1.43
2013-8-27,89.5,80.2,73.9,80.6,76.2,72.9,100,89,61,30.11,30.02,11,3,19,0.00
2013-8-28,91.5,81.3,72.6,80.1,75.6,72.3,100,84,61,30.08,29.98,8,2,13,0.00
2013-8-29,93.5,82.2,74.4,81.0,77.2,74.0,100,86,59,30.06,29.93,9,2,16,0.00
2013-8-30,92.6,82.1,74.9,81.5,77.0,74.2,100,86,64,30.02,29.90,12,2,16,0.00
2013-8-31,92.5,81.3,72.7,79.8,75.5,72.1,100,84,62,29.95,29.84,9,2,16,0.00
2013-9-1,93.3,81.4,71.4,80.8,75.6,70.9,100,84,60,29.93,29.83,16,3,16,0.00
2013-9-2,93.9,82.8,74.1,81.8,77.4,73.5,100,85,61,29.97,29.85,13,3,17,0.05
2013-9-3,95.8,83.2,73.5,81.6,77.1,73.2,100,84,52,29.99,29.86,11,2,14,0.00
2013-9-4,91.0,81.4,74.8,81.9,76.8,74.2,100,87,62,30.05,29.92,10,2,13,0.00
2013-9-5,90.5,81.5,74.7,81.1,77.1,74.2,100,88,68,30.07,29.99,16,4,21,0.01
2013-9-6,89.8,81.1,75.3,80.4,77.0,74.7,99,88,68,30.07,29.96,16,4,19,0.00
2013-9-7,86.3,78.0,74.4,80.9,76.1,73.8,100,94,78,30.02,29.92,18,2,22,0.37
2013-9-8,87.8,78.1,73.5,79.6,75.3,72.5,100,92,73,29.98,29.90,14,3,20,0.13
2013-9-9,88.7,78.2,72.3,78.8,74.9,72.0,100,90,66,29.98,29.91,18,4,35,0.59
2013-9-10,88.4,79.6,74.4,79.9,76.2,73.5,100,90,73,30.05,29.96,17,4,23,0.16
2013-9-11,89.1,79.6,72.0,79.9,75.0,71.6,100,87,65,30.07,29.98,17,5,22,0.00
2013-9-12,90.1,80.3,72.7,79.5,74.4,71.5,100,84,58,30.02,29.90,16,4,22,0.00
2013-9-13,92.0,80.4,71.1,78.5,74.1,70.5,99,83,54,29.92,29.80,14,4,19,0.00
2013-9-14,90.1,80.6,72.6,79.6,75.4,72.1,100,85,61,29.91,29.83,18,4,19,0.00
2013-9-15,89.9,81.6,73.7,79.9,76.7,72.8,99,86,68,29.98,29.89,17,5,21,0.00
2013-9-16,90.9,82.7,77.0,80.3,77.6,75.3,96,85,65,30.01,29.94,16,5,22,0.01
2013-9-17,89.9,81.3,75.0,80.7,77.2,74.4,100,88,65,30.03,29.92,22,5,22,0.00
2013-9-18,88.8,80.8,74.5,80.4,76.9,74.0,100,88,67,29.99,29.89,13,4,21,0.00
2013-9-19,89.6,81.1,75.3,81.0,77.8,74.8,100,90,73,29.93,29.84,18,5,23,0.10
2013-9-20,86.2,80.3,74.0,82.1,78.9,73.3,100,96,85,29.88,29.71,21,5,28,1.01
2013-9-21,75.5,73.6,71.5,74.3,71.8,69.5,100,94,84,29.82,29.72,17,6,22,0.71
2013-9-22,82.7,75.6,69.2,71.2,67.4,63.0,86,76,64,29.82,29.73,18,7,24,0.00
2013-9-23,87.3,78.7,72.4,76.9,71.3,63.4,95,79,66,29.79,29.71,18,7,18,0.00
2013-9-24,92.0,81.5,72.0,81.1,76.4,70.2,99,86,59,29.84,29.75,15,4,19,0.00
2013-9-25,93.5,79.5,67.4,78.4,71.3,66.8,99,79,44,29.86,29.76,9,2,10,0.00
2013-9-26,90.0,77.6,65.7,77.3,69.9,64.0,100,80,45,29.90,29.81,17,3,17,0.00
2013-9-27,87.1,79.3,70.8,79.3,75.1,69.9,99,87,75,29.94,29.87,18,6,23,0.00
2013-9-28,85.5,80.9,78.1,79.8,77.3,75.2,97,89,82,29.98,29.90,15,5,21,0.53
2013-9-29,84.1,79.0,76.8,81.0,76.9,75.0,98,93,82,29.97,29.88,19,3,26,0.51
2013-9-30,84.8,77.6,73.7,78.9,75.9,73.4,100,95,80,29.90,29.81,8,2,13,0.11
2013-10-1,83.4,76.5,72.7,78.1,74.4,72.1,100,94,76,29.96,29.84,13,3,20,0.00
2013-10-2,86.2,77.3,72.6,79.7,75.7,72.1,100,95,75,29.97,29.89,11,3,23,0.49
2013-10-3,88.1,79.1,71.5,79.4,75.4,71.2,100,89,69,29.94,29.86,14,4,19,0.00
2013-10-4,88.5,78.8,69.7,79.1,75.1,69.2,100,89,69,29.93,29.87,11,3,15,0.00
2013-10-5,90.3,80.5,73.4,81.5,77.1,69.6,100,90,72,29.92,29.83,9,2,17,0.01
2013-10-6,77.9,66.9,58.3,69.9,56.4,49.4,88,71,38,30.08,29.92,20,7,26,0.02
2013-10-7,79.4,64.7,50.8,58.2,52.4,46.0,93,67,40,30.12,30.01,13,3,20,0.00
2013-10-8,81.2,65.4,51.7,63.8,57.5,50.6,98,79,44,30.09,29.99,8,2,11,0.00
2013-10-9,82.4,67.4,55.8,68.8,61.8,55.0,99,84,58,30.06,29.98,9,2,13,0.00
2013-10-10,85.6,72.4,60.2,71.9,66.5,59.3,100,83,57,30.05,29.93,16,3,21,0.00
2013-10-11,86.5,75.8,64.2,76.9,71.8,63.6,100,88,67,29.96,29.88,13,4,16,0.00
2013-10-12,85.6,77.1,74.1,81.7,76.3,72.7,100,97,83,30.04,29.91,12,2,15,0.97
2013-10-13,76.9,74.8,72.7,76.6,74.3,72.4,100,98,92,30.13,30.02,13,3,16,0.04
2013-10-14,84.0,76.7,71.9,76.8,73.3,71.0,100,90,72,30.08,29.96,12,4,16,0.00
2013-10-15,84.9,76.0,69.3,77.2,72.6,69.0,100,90,69,29.98,29.88,14,3,18,0.12
2013-10-16,79.4,71.7,65.9,75.4,69.6,63.4,100,93,82,29.99,29.87,13,3,14,0.00
2013-10-17,76.8,66.9,59.8,65.7,62.8,58.7,97,87,65,30.07,29.95,15,5,19,0.03
2013-10-18,75.0,66.7,58.1,67.3,63.3,57.3,98,89,71,29.99,29.86,19,6,25,0.10
2013-10-19,71.6,63.9,50.8,66.0,58.2,48.7,99,83,52,30.10,29.92,15,6,23,0.02
2013-10-20,75.4,61.2,46.5,63.7,56.3,45.1,99,85,60,30.08,29.94,13,3,15,0.00
2013-10-21,74.0,67.8,61.3,70.2,66.2,60.2,98,95,87,29.99,29.90,15,4,17,0.31
2013-10-22,73.9,66.0,53.9,67.7,61.9,52.7,98,88,62,30.08,29.95,12,4,21,0.00
2013-10-23,82.5,63.3,49.7,61.4,54.2,48.9,99,77,36,30.16,30.07,9,2,9,0.00
2013-10-24,82.5,65.6,52.2,63.4,57.6,51.4,99,79,43,30.22,30.11,7,2,11,0.00
2013-10-25,73.7,63.8,54.7,63.0,59.1,53.8,99,86,66,30.34,30.20,21,5,21,0.00
2013-10-26,78.9,69.5,57.6,68.7,64.0,56.5,99,84,66,30.25,30.09,15,4,17,0.00
2013-10-27,72.2,65.5,60.5,70.0,64.6,59.6,100,97,90,30.11,30.00,14,1,33,1.10
2013-10-28,83.2,71.5,61.9,75.7,68.7,61.6,100,92,73,30.11,30.01,14,4,18,0.00
2013-10-29,83.0,75.2,67.1,74.2,71.3,66.2,100,88,71,30.12,30.03,17,6,20,0.00
2013-10-30,80.6,77.4,75.0,78.3,75.4,72.2,99,93,88,30.06,29.86,18,8,31,0.28
2013-10-31,78.3,71.3,60.3,77.5,70.8,59.9,100,98,91,29.89,29.76,16,5,25,2.48
2013-11-1,79.4,66.3,52.8,68.4,61.7,52.5,100,87,54,29.95,29.83,10,2,16,0.00
2013-11-2,72.7,64.2,51.3,66.7,51.1,42.9,91,65,37,30.21,29.95,20,6,30,0.00
2013-11-3,69.6,55.6,44.7,57.9,50.7,43.6,98,84,60,30.20,30.07,14,5,19,0.00
2013-11-4,75.9,67.3,54.3,68.5,63.8,52.4,98,89,76,30.08,29.99,27,7,27,0.06
2013-11-5,80.7,75.2,72.3,73.0,70.9,67.6,97,87,74,30.04,29.96,22,7,22,0.01
2013-11-6,83.0,72.1,56.2,76.5,67.7,50.1,100,87,63,30.24,29.98,17,5,21,0.00
2013-11-7,65.0,56.7,48.0,50.4,45.1,42.1,84,66,49,30.36,30.22,19,9,32,0.00
2013-11-8,65.7,56.5,49.8,50.6,46.5,42.2,93,71,45,30.36,30.17,23,6,27,0.00
2013-11-9,71.7,60.6,51.2,62.3,56.1,48.7,96,86,69,30.20,30.13,13,4,17,0.00
2013-11-10,73.9,62.1,55.5,60.0,55.8,51.7,97,81,46,30.28,30.17,12,3,16,0.00
2013-11-11,74.8,61.0,52.2,62.4,56.6,51.4,99,87,58,30.25,30.13,8,2,14,0.00
2013-11-12,74.0,59.9,48.8,60.5,54.3,39.7,98,83,60,30.53,30.19,26,8,34,0.00
2013-11-13,55.6,45.5,37.8,39.7,33.6,29.2,91,65,38,30.59,30.40,32,8,33,0.00
2013-11-14,64.0,52.8,40.0,55.5,47.7,37.3,93,83,70,30.40,30.05,16,5,18,0.00
2013-11-15,77.7,66.0,55.8,69.5,62.8,52.0,97,90,75,30.06,29.91,12,5,16,0.00
2013-11-16,80.0,71.6,60.8,76.1,70.2,59.9,100,96,85,29.95,29.81,19,6,22,0.00
2013-11-17,83.9,76.7,72.1,77.9,74.4,71.8,100,93,78,29.93,29.81,15,4,19,0.00
2013-11-18,75.6,71.4,65.3,74.7,65.6,52.0,100,83,54,30.09,29.92,21,4,23,0.00
2013-11-19,67.0,61.5,54.0,56.6,51.6,47.3,91,70,60,30.13,30.02,22,9,25,0.00
2013-11-20,74.2,64.6,52.4,69.3,60.4,48.8,97,86,77,30.03,29.92,22,8,23,0.00
2013-11-21,82.1,74.3,70.8,76.9,72.3,69.3,99,94,83,30.08,29.96,20,8,24,0.00
2013-11-22,75.3,60.2,46.1,74.3,59.6,44.9,100,98,83,30.26,30.05,17,7,25,0.82
2013-11-23,51.0,47.9,45.2,49.3,46.1,42.0,98,94,81,30.35,30.23,22,11,33,0.00
2013-11-24,51.6,47.2,44.3,42.1,37.1,34.0,81,68,57,30.39,30.27,23,9,30,0.00
2013-11-25,47.0,43.6,39.7,43.3,40.7,37.6,97,90,70,30.28,29.94,19,8,25,0.92
2013-11-26,45.3,42.1,40.5,42.3,40.2,38.8,96,93,86,30.26,29.99,28,8,28,0.43
2013-11-27,50.7,40.9,32.6,38.9,34.2,30.4,96,78,48,30.42,30.26,14,5,20,0.00
2013-11-28,55.8,43.4,32.2,47.4,39.7,30.7,97,87,70,30.47,30.37,15,5,19,0.00
2013-11-29,59.9,47.2,38.3,44.2,40.5,36.2,96,80,51,30.50,30.38,12,5,16,0.00
2013-11-30,69.5,53.6,39.2,58.7,49.6,38.0,99,87,61,30.39,30.21,13,4,16,0.00
2013-12-1,70.7,59.9,47.4,63.0,57.2,46.6,100,92,75,30.22,29.95,11,3,15,0.00
2013-12-2,77.8,66.5,60.8,68.8,63.5,59.8,100,91,70,29.96,29.70,19,6,23,0.00
2013-12-3,80.8,69.4,60.9,71.5,66.1,60.6,100,90,68,29.75,29.64,22,7,22,0.00
2013-12-4,80.5,71.5,65.1,74.5,70.2,18.6,100,96,79,29.83,29.71,11,4,22,0.00
2013-12-5,76.5,61.6,42.1,76.5,60.3,41.0,100,96,83,29.99,29.80,11,5,21,0.05
2013-12-6,43.8,41.3,36.8,42.0,39.7,34.4,100,94,87,30.34,29.95,28,8,28,0.01
2013-12-7,39.4,38.1,36.3,36.9,35.4,33.5,93,90,88,30.38,30.26,24,6,25,0.00
2013-12-8,49.1,44.3,38.7,45.5,40.6,36.3,95,87,79,30.26,30.03,12,3,14,0.00
2013-12-9,49.9,47.2,42.7,49.3,46.5,41.6,98,97,95,30.27,30.02,20,6,21,0.03
2013-12-10,50.4,42.7,35.2,41.7,35.5,32.0,95,77,54,30.43,30.27,20,6,22,0.00
2013-12-11,53.4,47.1,40.4,46.4,41.7,37.2,89,82,74,30.48,30.33,11,3,11,0.00
2013-12-12,55.7,46.3,39.2,43.2,39.7,36.2,94,79,54,30.54,30.34,18,4,18,0.00
2013-12-13,60.1,52.1,42.4,58.7,50.2,40.4,99,93,87,30.34,29.86,14,4,18,0.01
2013-12-14,62.3,53.4,42.2,59.3,49.7,36.8,100,88,68,30.26,29.86,30,7,30,0.01
2013-12-15,56.2,43.6,33.9,39.7,35.4,32.0,94,75,48,30.38,30.26,18,5,19,0.00
2013-12-16,64.5,44.7,29.9,45.4,37.2,28.7,99,79,36,30.35,30.23,10,2,11,0.00
2013-12-17,70.0,50.4,34.2,55.5,44.6,33.2,100,83,46,30.34,30.23,12,2,12,0.00
2013-12-18,70.0,53.4,37.6,59.6,49.6,36.8,100,88,64,30.32,30.11,17,4,17,0.00
2013-12-19,74.7,66.9,57.5,68.8,63.8,54.7,98,90,78,30.11,29.90,24,8,25,0.00
2013-12-20,75.8,70.8,67.7,73.5,70.1,67.1,100,98,92,29.92,29.76,21,8,24,0.01
2013-12-21,75.7,66.9,52.2,74.2,66.1,51.7,100,97,86,29.82,29.58,26,6,27,0.48
2013-12-22,63.7,55.9,39.9,61.9,51.9,34.3,100,87,70,30.32,29.81,24,5,24,0.02
2013-12-23,54.3,42.5,34.2,39.2,35.3,32.0,93,77,52,30.52,30.31,20,6,20,0.00
2013-12-24,54.4,41.3,29.9,40.0,34.0,28.6,97,78,40,30.55,30.31,18,5,22,0.00
2013-12-25,60.1,50.0,35.5,52.7,46.3,34.2,98,87,74,30.35,30.27,21,6,21,0.00
2013-12-26,61.2,52.6,45.0,48.2,44.7,36.0,96,75,46,30.38,30.30,10,3,17,0.00
2013-12-27,56.5,51.3,46.8,47.5,44.6,40.7,94,78,62,30.41,30.29,16,4,16,0.00
2013-12-28,57.6,49.3,38.9,44.9,40.8,37.2,95,73,50,30.30,30.04,11,3,11,0.00
2013-12-29,68.9,51.9,35.6,51.6,44.4,34.6,99,78,46,30.15,30.00,15,2,16,0.00
2013-12-30,54.1,45.9,42.5,49.2,39.9,36.8,85,79,74,30.39,30.12,17,5,17,0.00
2013-12-31,49.0,44.9,41.6,43.2,38.5,35.4,91,78,70,30.44,30.28,14,4,18,0.00
2014-1-1,65.2,57.1,45.5,59.9,54.4,43.0,96,91,83,30.29,30.02,13,3,13,0.00
2014-1-2,58.7,49.6,38.9,58.3,39.4,29.9,99,69,42,30.43,30.05,29,8,30,0.08